Location: Huntsville
(41.2590°N, 111.7678°W)
Time: 04:47:13
(UTC+00:00)

Vanguard 2 Rocket - All Passes

Search period start: 25 September 2022 00:00
Search period end: 05 October 2022 00:00
Orbit: 553 x 3323 km, 32.9° (Epoch: 24 September)

Date Brightness Start Highest point End Pass type
(mag) Time Alt. Az. Time Alt. Az. Time Alt. Az.
25 Sep - 07:25:23 10° SSW 07:32:34 22° SSE 07:37:33 10° ESE night (unlit)
25 Sep - 09:39:25 10° WSW 09:45:44 33° S 09:50:00 10° ESE visible
25 Sep - 11:54:02 10° WSW 11:58:02 25° SSW 12:01:21 10° SE visible
26 Sep - 06:24:41 10° SSW 06:32:10 19° SSE 06:37:34 10° ESE night (unlit)
26 Sep - 08:38:10 10° SW 08:45:49 33° S 08:50:43 10° ESE night (unlit)
26 Sep - 10:53:13 10° WSW 10:58:28 32° S 11:02:17 10° SE visible
26 Sep - 13:08:27 10° SW 13:10:24 13° SSW 13:12:16 10° S daylight
27 Sep - 05:24:27 10° S 05:31:31 16° SSE 05:36:57 10° ESE visible
27 Sep - 07:36:46 10° SW 07:45:40 31° SSE 07:51:19 10° ESE night (unlit)
27 Sep - 09:52:03 10° WSW 09:58:46 37° S 10:03:11 10° ESE visible
27 Sep - 12:07:19 10° WSW 12:10:54 20° SSW 12:13:56 10° SSE visible
28 Sep - 04:25:30 10° S 04:30:37 13° SSE 04:34:59 10° SE visible
28 Sep - 06:35:19 10° SW 06:45:16 28° SSE 06:51:42 10° ESE night (unlit)
28 Sep - 08:50:32 10° WSW 08:58:53 39° S 09:04:01 10° ESE night (unlit)
28 Sep - 11:06:15 10° WSW 11:11:24 29° SSW 11:15:11 10° SE visible
29 Sep - 05:34:04 10° SSW 05:44:35 25° SSE 05:51:44 10° ESE visible
29 Sep - 07:48:45 10° SW 07:58:44 39° S 08:04:44 10° ESE night (unlit)
29 Sep - 10:04:54 10° WSW 10:11:45 37° S 10:16:13 10° ESE visible
29 Sep - 12:21:05 10° WSW 12:23:40 14° SSW 12:25:56 10° S visible
30 Sep - 04:33:20 10° SSW 04:43:38 21° SSE 04:51:11 10° ESE visible
30 Sep - 06:46:48 10° SW 06:58:19 37° SSE 07:05:17 10° ESE night (unlit)
30 Sep - 09:03:10 10° WSW 09:11:54 43° S 09:17:10 10° ESE night (unlit)
30 Sep - 11:19:28 10° WSW 11:24:13 23° SSW 11:27:47 10° SSE visible
01 Oct - 03:33:33 10° S 03:42:28 16° SSE 03:49:38 10° ESE visible
01 Oct - 05:44:56 10° SW 05:57:36 34° SSE 06:05:35 10° E visible
01 Oct - 08:01:06 10° WSW 08:11:46 46° S 08:17:58 10° ESE night (unlit)
01 Oct - 10:17:52 10° W 10:24:39 34° SSW 10:29:07 10° SE visible
02 Oct - 02:36:10 10° SSE 02:41:09 12° SE 02:45:41 10° SE visible
02 Oct - 04:43:21 10° SSW 04:56:35 30° SSE 05:05:30 10° E visible
02 Oct - 06:58:48 10° WSW 07:11:20 46° S 07:18:37 10° ESE visible
02 Oct - 09:15:58 10° WSW 09:24:50 43° SSW 09:30:12 10° ESE night (unlit)
02 Oct - 11:33:02 10° WSW 11:36:52 17° SSW 11:39:55 10° S visible
03 Oct - 03:42:21 10° SSW 03:55:20 25° SSE 04:04:50 10° ESE visible
03 Oct - 05:56:28 10° SW 06:10:34 43° SSE 06:19:02 10° E visible
03 Oct - 08:13:42 10° WSW 08:24:45 49° S 08:31:05 10° ESE night (unlit)
03 Oct - 10:30:59 10° W 10:37:24 28° SSW 10:41:45 10° SSE visible
04 Oct - 02:42:20 10° S 02:53:55 20° SE 03:03:14 10° ESE visible
04 Oct - 04:54:20 10° SW 05:09:29 39° SSE 05:19:10 10° E visible
04 Oct - 07:11:09 10° WSW 07:24:18 52° S 07:31:48 10° ESE visible
04 Oct - 09:28:52 10° W 09:37:42 39° SSW 09:43:04 10° SE night (unlit)
04 Oct - 11:47:48 10° SW 11:49:20 11° SW 11:50:44 10° SSW visible
